User: anonymous   Login
Location: Unspecified
(0.0000°N, 0.0000°E)
Time: 22:59:54
(UTC+00:00)
Language:

COMSATBw-1 - Orbit

View from above orbital plane
View from above orbital plane
View from above satellite
View from above satellite

Ground track
Ground track

The orbit data is extracted from the following two-line orbital elements,

1 35943U 09054B   22267.86041241  .00000024  00000-0  00000+0 0  9992
2 35943   0.0394 101.2152 0003049  99.3163 175.8945  1.00271675 47617
Epoch (UTC): 24 September 2022 20:38:59
Eccentricity: 0.0003049
inclination: 0.0394°
perigee height: 35773 km
apogee height: 35799 km
right ascension of ascending node: 101.2152°
argument of perigee: 99.3163°
revolutions per day: 1.00271675
mean anomaly at epoch: 175.8945°
orbit number at epoch: 4761

The dashed part of the orbit path shows where the satellite is in the earth's shadow,  

DLR